Nashua, NH

7:08 AM EDT on May 24, 2017 (GMT -0400)
Boire

Weather History for KASH - August, 2014

Change the Weather History Date:

Tuesday, August 19, 2014

  Actual Average Record
Temperature  
Mean Temperature 63 °F -  
Max Temperature 79 °F 79 °F 92 °F (1966)
Min Temperature 47 °F 54 °F 40 °F (1968)
Degree Days  
Heating Degree Days 2    
Growing Degree Days 13 (Base 50)    
Moisture  
Dew Point 51 °F    
Average Humidity 66    
Maximum Humidity 97    
Minimum Humidity 39    
Precipitation  
Precipitation 0.00 in - - ()
Sea Level Pressure  
Sea Level Pressure 30.65 in    
Wind  
Wind Speed 1 mph (NNW)    
Max Wind Speed 6 mph    
Max Gust Speed -    
Visibility 10 miles    
Events Rain    
Averages and records for this station are not official NWS values.
T = Trace of Precipitation, MM = Missing Value Source: NWS Daily Summary

Daily Weather History Graph

Daily Weather History Graph

Search for Another Location

Airport or City:

Trip Planner

Search our weather history database for the weather conditions in past years. The results will help you decide how hot, cold, wet, or windy it might be!

Date:

Astronomy

Aug. 19, 2014 Rise Set
Actual Time 5:56 AM EDT 7:41 PM EDT
Civil Twilight 5:26 AM EDT 8:11 PM EDT
Nautical Twilight 4:49 AM EDT 8:48 PM EDT
Astronomical Twilight 4:10 AM EDT 9:27 PM EDT
Moon 12:44 AM EDT (8/19) 3:38 PM EDT (8/19)
Length of Visible Light 14h 45m
Length of Day
13h 45m
Waning Crescent, 29% of the Moon is Illuminated
Aug 19
Waning Crescent
Aug 25
New
Sep 2
First Quarter
Sep 8
Full
Sep 15
Last Quarter

Hourly Weather History & Observations

Time (EDT) Temp. Dew Point Humidity Pressure Visibility Wind Dir Wind Speed Gust Speed Precip Events Conditions
1:51 AM 54.9 °F 50.0 °F 84% 30.61 in 10.0 mi Calm Calm - N/A   Clear
2:51 AM 52.9 °F 48.9 °F 86% 30.62 in 10.0 mi Calm Calm - N/A   Clear
3:51 AM 50.9 °F 48.9 °F 93% 30.62 in 10.0 mi Calm Calm - N/A   Clear
4:51 AM 50.0 °F 47.8 °F 92% 30.63 in 10.0 mi Calm Calm - N/A   Clear
5:51 AM 47.8 °F 46.9 °F 97% 30.65 in 10.0 mi Calm Calm - N/A   Clear
6:51 AM 50.0 °F 47.8 °F 92% 30.65 in 10.0 mi Calm Calm - N/A   Clear
7:51 AM 55.9 °F 50.0 °F 80% 30.66 in 10.0 mi Calm Calm - N/A   Clear
8:51 AM 63.0 °F 50.9 °F 65% 30.66 in 10.0 mi NNW 3.5 mph - N/A   Clear
9:51 AM 65.8 °F 52.0 °F 61% 30.66 in 10.0 mi North 5.8 mph - N/A   Clear
10:51 AM 70.0 °F 50.9 °F 51% 30.67 in 10.0 mi NW 3.5 mph - N/A   Partly Cloudy
11:51 AM 72.0 °F 50.9 °F 47% 30.67 in 10.0 mi Variable 4.6 mph - N/A   Clear
1:51 PM 74.8 °F 50.9 °F 43% 30.64 in 10.0 mi Calm Calm - 0.00 in Rain Light Rain
2:51 PM 77.0 °F 50.9 °F 40% 30.63 in 10.0 mi Calm Calm - N/A   Clear
3:51 PM 77.9 °F 50.9 °F 39% 30.63 in 10.0 mi Calm Calm - N/A   Partly Cloudy
5:51 PM 79.0 °F 52.9 °F 40% 30.64 in 10.0 mi Calm Calm - N/A   Clear
6:51 PM 75.9 °F 54.9 °F 48% 30.64 in 10.0 mi Calm Calm - N/A   Clear
7:51 PM 68.9 °F 55.9 °F 63% 30.65 in 10.0 mi Calm Calm - N/A   Clear
8:51 PM 68.9 °F 55.9 °F 63% 30.67 in 10.0 mi SE 4.6 mph - N/A   Clear
9:51 PM 64.9 °F 54.9 °F 70% 30.68 in 10.0 mi Calm Calm - N/A   Clear